Weather History for KCHA - February, 2012

Change the Weather History Date:

Saturday, February 25, 2012

  Actual Average Record
Temperature  
Mean Temperature 44 °F 47 °F  
Max Temperature 55 °F 58 °F 79 °F (1930)
Min Temperature 32 °F 36 °F 6 °F (1967)
Degree Days  
Heating Degree Days 21 18  
Month to date heating degree days 429 524  
Since 1 July heating degree days 2149 2569  
Cooling Degree Days 0 0  
Month to date cooling degree days 2 0  
Year to date cooling degree days 2 0  
Moisture  
Dew Point 21 °F    
Average Humidity 47    
Maximum Humidity 78    
Minimum Humidity 16    
Precipitation  
Precipitation 0.00 in 0.17 in 2.10 in (1934)
Month to date precipitation 2.24 4.31  
Year to date precipitation 9.34 9.22  
Snow  
Snow 0.00 in 0.00 in - ()
Month to date snowfall T 0.5  
Since 1 July snowfall T 2.5  
Snow Depth 0.00 in    
Sea Level Pressure  
Sea Level Pressure 30.26 in    
Wind  
Wind Speed 7 mph (West)    
Max Wind Speed 26 mph    
Max Gust Speed 38 mph    
Visibility 10 miles    
Events      
T = Trace of Precipitation, MM = Missing Value Source: NWS Daily Summary

Daily Weather History Graph

Daily Weather History Graph

Search for Another Location

Airport or City:

Trip Planner

Search our weather history database for the weather conditions in past years. The results will help you decide how hot, cold, wet, or windy it might be!

Date:

Astronomy

Feb. 25, 2012 Rise Set
Actual Time 7:15 AM EST 6:32 PM EST
Civil Twilight 6:50 AM EST 6:58 PM EST
Nautical Twilight 6:20 AM EST 7:27 PM EST
Astronomical Twilight 5:51 AM EST 7:56 PM EST
Moon 8:50 AM EST (2/25) 10:20 PM EST (2/25)
Length of Visible Light 12h 07m
Length of Day
11h 16m
Waxing Crescent, 13% of the Moon is Illuminated
Feb 25
Waxing Crescent
Feb 29
First Quarter
Mar 8
Full
Mar 14
Last Quarter
Mar 22
New

Hourly Weather History & Observations

Time (EST) Temp. Windchill Dew Point Humidity Pressure Visibility Wind Dir Wind Speed Gust Speed Precip Events Conditions
12:53 AM 39.9 °F 37.8 °F 24.1 °F 53% 30.17 in 10.0 mi West 3.5 mph - N/A   Clear
1:53 AM 39.0 °F 36.8 °F 24.1 °F 55% 30.18 in 10.0 mi West 3.5 mph - N/A   Clear
2:53 AM 36.0 °F 31.1 °F 27.0 °F 70% 30.19 in 10.0 mi WSW 5.8 mph - N/A   Clear
3:53 AM 36.0 °F 32.1 °F 26.1 °F 67% 30.20 in 10.0 mi West 4.6 mph - N/A   Clear
4:53 AM 37.0 °F 33.3 °F 26.1 °F 65% 30.22 in 10.0 mi SW 4.6 mph - N/A   Clear
5:53 AM 35.1 °F 32.2 °F 26.1 °F 70% 30.24 in 10.0 mi South 3.5 mph - N/A   Clear
6:53 AM 32.0 °F - 26.1 °F 79% 30.24 in 10.0 mi Calm Calm - N/A   Clear
7:53 AM 33.1 °F - 27.0 °F 78% 30.25 in 10.0 mi Calm Calm - N/A   Clear
8:53 AM 39.9 °F 36.7 °F 26.1 °F 58% 30.27 in 10.0 mi South 4.6 mph - N/A   Clear
9:53 AM 45.0 °F 42.6 °F 24.1 °F 44% 30.27 in 10.0 mi SSW 4.6 mph - N/A   Clear
10:53 AM 48.9 °F - 19.9 °F 32% 30.26 in 10.0 mi WSW 10.4 mph 21.9 mph N/A   Partly Cloudy
11:53 AM 51.1 °F - 19.0 °F 28% 30.27 in 10.0 mi West 21.9 mph 38.0 mph N/A   Scattered Clouds
12:53 PM 53.1 °F - 19.9 °F 27% 30.25 in 10.0 mi West 17.3 mph 25.3 mph N/A   Scattered Clouds
1:53 PM 53.6 °F - 14.0 °F 21% 30.23 in 10.0 mi WNW 20.7 mph 27.6 mph N/A   Scattered Clouds
2:53 PM 55.0 °F - 14.0 °F 20% 30.23 in 10.0 mi NW 16.1 mph 26.5 mph N/A   Scattered Clouds
3:53 PM 53.1 °F - 8.1 °F 16% 30.25 in 10.0 mi West 13.8 mph 25.3 mph N/A   Scattered Clouds
4:53 PM 53.1 °F - 9.0 °F 17% 30.25 in 10.0 mi WNW 15.0 mph 20.7 mph N/A   Mostly Cloudy
5:53 PM 51.1 °F - 10.0 °F 19% 30.27 in 10.0 mi NW 10.4 mph - N/A   Mostly Cloudy
6:53 PM 46.9 °F - 12.9 °F 25% 30.28 in 10.0 mi WNW 4.6 mph - N/A   Scattered Clouds
7:53 PM 44.1 °F 42.5 °F 19.9 °F 38% 30.30 in 10.0 mi NNW 3.5 mph - N/A   Partly Cloudy
8:53 PM 42.1 °F - 21.0 °F 43% 30.32 in 10.0 mi Calm Calm - N/A   Partly Cloudy
9:53 PM 37.0 °F - 23.0 °F 57% 30.34 in 10.0 mi Calm Calm - N/A   Partly Cloudy
10:53 PM 37.0 °F 33.3 °F 21.0 °F 52% 30.33 in 10.0 mi NNE 4.6 mph - N/A   Partly Cloudy
11:53 PM 37.0 °F - 24.1 °F 59% 30.35 in 10.0 mi Calm Calm - N/A   Clear